Location: Godiavel Galaoual
(15.2485°N, 12.6604°W)
Time: 07:47:50
(UTC+00:00)

BUGSAT 1 - Pass Details

Date: 31 July 2021
Orbit: 558 x 601 km, 98.1° (Epoch: 27 September)

Event Time Altitude Azimuth Distance (km) Brightness Sun altitude
Rises 04:45:45 0° 23° (NNE) 2,820 ? -24.5°
Reaches altitude 10° 04:48:01 10° 32° (NNE) 1,924 ? -24.0°
Maximum altitude 04:51:55 38° 100° (E) 912 ? -23.2°
Enters shadow 04:54:41 17° 161° (SSE) 1,511 ? -22.6°
